Regional Weather Roundup
Issued by NWS

Home | Current Version | Previous Version | Text Only | Print | Product List | Glossary Off
Versions: 1 2 3 4 5 6 7 8 9 10 11 12 13 14 15 16 17 18 19 20 21 22 23 24 25 26 27 28 29 30 31 32 33 34 35 36 37 38 39 40 41 42 43 44 45 46 47 48 49 50

000
ASUS45 KBOU 202307
RWRCO

WEATHER ROUNDUP FOR COLORADO
NATIONAL WEATHER SERVICE DENVER/BOULDER CO
500 PM MDT MON APR 20 2015

NOTE: "FAIR" INDICATES FEW OR NO CLOUDS BELOW 12000 FEET WITH NO
SIGNIFICANT WEATHER AND/OR OBSTRUCTIONS TO VISIBILITY.

COZ001>005-013-030-031-210000-
...NORTHWEST COLORADO...

CITY           SKY/WX    TMP DP  RH WIND       PRES   REMARKS
CRAIG          PTSUNNY   55  31  39 NW6       29.94F
HAYDEN         PTSUNNY   46  32  57 N8        29.95S
MEEKER         MOSUNNY   57  28  33 W15G23    29.93R
MOUNT WERNER   NOT AVBL
STEAMBOAT SPGS PTSUNNY   39  33  76 N5        29.98R
WALDEN         MOSUNNY   46  23  39 NW12G23   29.95F
$$

COZ006>008-011-210000-
...WEST CENTRAL VALLEYS...

CITY           SKY/WX    TMP DP  RH WIND       PRES   REMARKS
GRAND JUNCTION MOSUNNY   66  29  24 NW10      29.86F
MONTROSE       MOSUNNY   62  29  28 W9        29.93F
EAGLE          PTSUNNY   54  27  35 SW8       29.96S
RIFLE          LGT RAIN  56  34  43 SW17G24   29.92R
DELTA          MOSUNNY   68  27  21 NW10G20   29.89S
NUCLA          MOSUNNY   64  19  17 NW12G17   29.94S
$$

COZ017>023-064>068-210000-
...SOUTHWEST COLORADO...

CITY           SKY/WX    TMP DP  RH WIND       PRES   REMARKS
DURANGO        CLOUDY    58  24  27 NW22G31   29.93R
CORTEZ         PTSUNNY   63  18  17 W12       29.93S
PAGOSA SPRINGS CLOUDY    54  18  24 N9G24     29.95R
TELLURIDE      PTSUNNY   49  17  27 W17G30    30.03S
WOLF CREEK PAS CLOUDY    32  21  64 SW5       30.12F WCI  27
$$

COZ009-010-012-014-032>034-037-058>063-210000-
...CENTRAL COLORADO...

CITY           SKY/WX    TMP DP  RH WIND       PRES   REMARKS
ASPEN          PTSUNNY   45  27  49 SW7       29.97R
BUENA VISTA    PTSUNNY   50  21  31 NW20      29.94R
COPPER MTN     NOT AVBL
BERTHOUD PASS  SNOW      19  10  68 NW36G41   30.02F VSB 1/4 WCI  -1
COTTONWOOD PAS MOSUNNY   45  14  29 W15G29    29.99R
GUNNISON       PTSUNNY   48  27  43 SW17G26   30.00S
KREMMLING      PTSUNNY   43  27  52 NW18G24   29.98R
LEADVILLE      LGT SNOW  34  23  64 NE14G21   30.01R WCI  25
MONARCH PASS   SNOW      28  19  69 W33G40    30.15S VSB 1/4 WCI  12
SALIDA         PTSUNNY   57  17  21 W21       29.98S
SUNLIGHT       MOSUNNY   37  30  75 CALM      30.09S
WILKERSON PASS PTSUNNY   32  21  64 NW12G18   30.07R WCI  23
$$

COZ069>075-210000-
...SAN LUIS VALLEY/SANGRE DE CRISTO MOUNTAINS...

CITY           SKY/WX    TMP DP  RH WIND       PRES   REMARKS
ALAMOSA        PTSUNNY   53  26  35 S6        29.93F
LA VETA PASS   CLOUDY    36  28  75 S6        30.01S
SAGUACHE       PTSUNNY   50  23  34 NW20G33   29.96R
$$

COZ035-036-038>040-210000-
...NORTHERN COLORADO FRONT RANGE...

CITY           SKY/WX    TMP DP  RH WIND       PRES   REMARKS
DENVER INTL AP PTSUNNY   52  30  43 E8        29.90S
DMNS CITY PARK   N/A     56  29  35 NE7       29.91R
AURORA         NOT AVBL
FRONT RANGE AP PTSUNNY   55  32  41 N3        29.93R
ERIE MUNI ARPT PTSUNNY   55  30  39 NE6       29.90F
BOULDER MUN AP MOSUNNY   54  32  43 E7        29.90S
CENTENNIAL     MOSUNNY   52  30  43 NE13      29.90S
BROOMFIELD     PTSUNNY   54  30  40 CALM      29.91S
FORT COLLINS   MOSUNNY   54  32  43 S8        29.92S
LONGMONT       PTSUNNY   60  32  35 N6        29.92R
$$

COZ041-046-047-076>085-087-088-210000-
...PIKES PEAK/PALMER DIVIDE AND SOUTHERN FOOTHILLS...

CITY           SKY/WX    TMP DP  RH WIND       PRES   REMARKS
COLO. SPRINGS  PTSUNNY   53  32  44 S12       29.91F
A. F. ACADEMY  NOT AVBL
ELLICOTT       PTSUNNY  N/A N/A N/A W9        29.91R
FALCON         PTSUNNY   49  32  51 SW7       29.94S
FORT CARSON    NOT AVBL
LIMON          MOSUNNY   54  28  36 NW12      29.91R
MONUMENT HILL  PTSUNNY   46  28  49 N8        29.93R
TRINIDAD       CLOUDY    53  37  54 S18       29.90S
$$

COZ042>045-048>051-090-091-210000-
...NORTHEAST COLORADO...

CITY           SKY/WX    TMP DP  RH WIND       PRES   REMARKS
GREELEY ARPT   MOSUNNY   55  27  33 N16       29.91S
AKRON          PTSUNNY   55  21  26 NW21G31   29.88S
BURLINGTON     MOSUNNY   58  29  33 NW17      29.89F
WRAY           MOSUNNY   60  24  25 NW13G20   29.88S
STERLING       SUNNY     57  28  33 N12G23    29.88R
HOLYOKE        SUNNY     59  25  27 NW14G24   29.88S
FORT MORGAN    MOSUNNY   57  22  25 NW23G31   29.91R
$$

COZ086-089-092>099-210000-
...SOUTHEAST COLORADO...

CITY           SKY/WX    TMP DP  RH WIND       PRES   REMARKS
PUEBLO         MOSUNNY   59  28  30 E7        29.87S
LA JUNTA       MOSUNNY   60  31  33 VRB6      29.89R
LAMAR          SUNNY     61  31  32 NE7       29.88R
SPRINGFIELD      N/A     61  30  31 CALM      29.87R
$$


USA.gov is the U.S. government's official web portal to all federal, state and local government web resources and services.